Location: Butte
(46.0040°N, 112.5340°W)
Time: 02:11:24
(UTC-06:00)

Daily predictions for brighter satellites

Satellite Brightness Start Highest point End
(mag) Time Altitude Azimuth Time Altitude Azimuth Time Altitude Azimuth
ALOS 2 3.9 00:05:51 27° E 00:06:43 29° ENE 00:10:29 10° N
Meteor 1-11 Rocket 4.0 00:10:23 42° SE 00:11:54 53° E 00:17:32 10° NNE
CZ-4B R/B 3.5 00:12:24 17° ENE 00:12:24 17° ENE 00:14:09 10° NNE
Meteor 2-4 Rocket 4.3 00:07:15 10° N 00:12:24 43° ENE 00:13:54 35° ESE
Cosmos 1633 4.1 00:13:21 26° ENE 00:13:21 26° ENE 00:15:49 10° NNE
Okean 1-7 Rocket 3.5 00:11:39 10° N 00:16:12 83° W 00:16:53 63° S
Gbstr 26 Del rocket 3.2 00:12:23 10° WNW 00:17:13 67° NNE 00:18:21 46° E
Cosmos 2082 Rocket 2.9 00:11:57 10° NW 00:17:20 43° WSW 00:19:06 33° SSW
Cosmos 1331 Rocket 3.8 00:16:13 52° S 00:17:26 75° ESE 00:22:36 10° NNE
Okean 1 Rocket 3.0 00:19:26 62° SSW 00:20:11 84° W 00:24:42 10° N
Cosmos 1110 Rocket 3.9 00:19:36 46° SSW 00:21:15 90° ENE 00:26:30 10° NNE
Cosmos 1025 Rocket 3.2 00:17:36 10° N 00:21:57 58° ENE 00:22:18 56° E
Cosmos 1536 3.6 00:23:10 40° ENE 00:23:10 40° ENE 00:26:32 10° NNE
Cosmos 1300 Rocket 3.7 00:22:07 52° SW 00:23:01 68° W 00:27:29 10° N
USA 229 DEB 4.0 00:17:45 10° NW 00:24:39 56° WSW 00:27:08 38° S
Iridium 4 Rocket 3.8 00:18:51 10° N 00:24:41 74° E 00:26:22 48° SSE
AVUM R/B 4.2 00:21:18 10° NW 00:24:12 46° W 00:24:12 46° W
USA 229 4.0 00:17:51 10° NW 00:24:46 56° WSW 00:27:14 39° S
Cosmos 1400 Rocket 3.3 00:26:44 50° E 00:26:44 50° E 00:30:27 10° NNE
ISS -0.5 00:29:42 11° ENE 00:29:42 11° ENE 00:29:51 10° ENE
Cosmos 1356 4.3 00:27:32 44° NE 00:27:32 44° NE 00:30:14 10° NNE
Meteor 2-21 4.4 00:25:08 45° SSE 00:27:05 74° E 00:33:17 10° NNE
Cosmos 1809 Rocket 4.4 00:27:17 46° S 00:29:15 77° E 00:35:28 10° NNE
H-2A R/B 3.8 00:26:57 17° SW 00:29:30 24° W 00:33:49 10° NW
Cosmos 1354 Rocket 4.2 00:31:52 10° NNW 00:37:06 62° ENE 00:38:17 49° ESE
Terra 3.8 00:39:04 16° WSW 00:40:46 19° W 00:44:06 10° NW
Cosmos 1486 Rocket 4.1 00:35:32 10° NNW 00:40:52 69° WSW 00:41:49 56° SSW
NOSS 3-1 (A) 4.1 00:35:45 10° NW 00:43:13 73° NE 00:47:30 31° SE
Cosmos 1544 Rocket 3.9 00:46:49 50° E 00:46:49 50° E 00:50:48 10° NNE
Meteor 1-19 Rocket 4.3 00:41:37 10° NNW 00:47:29 74° W 00:48:56 51° SSW
Meteor 1-23 Rocket 4.1 00:44:03 10° N 00:49:41 82° E 00:50:49 58° SSE
Lacrosse 5 2.8 00:53:43 33° E 00:53:43 33° E 00:57:10 10° ENE
MOS 1-B Rocket 4.2 00:55:30 43° SE 00:57:26 65° ENE 01:04:06 10° N
CZ-4C R/B 3.7 01:03:14 56° NW 01:03:14 56° NW 01:06:27 10° NNW
ATLAS 2AS CENTAUR R/B 3.8 00:56:37 10° NW 01:04:32 49° NE 01:11:23 13° ESE
Okean 2 3.4 01:04:47 10° N 01:08:43 78° NNW 01:08:43 78° NNW
Meteor 2-15 Rocket 4.4 01:03:12 10° NNW 01:09:21 78° W 01:10:50 53° SSW
Cosmos 2369 Rocket 2.2 01:09:50 57° SE 01:10:25 60° ESE 01:15:58 10° NNE
SL-8 R/B 3.9 01:10:13 10° WNW 01:15:01 69° N 01:18:55 15° E
NOSS 3-1 (C) 4.0 01:07:36 10° NW 01:15:04 68° WSW 01:17:48 44° S
Cosmos 1302 Rocket 4.4 01:15:25 43° WSW 01:16:52 59° WNW 01:22:06 10° NNE
USA 234 4.0 01:13:39 10° NE 01:19:56 51° NNW 01:26:12 10° W
Cosmos 1689 Rocket 3.9 01:22:38 33° NW 01:22:38 33° NW 01:24:37 10° NNW
Landsat 5 3.6 01:21:33 73° W 01:21:33 73° W 01:25:43 10° NNW
Cosmos 1892 Rocket 4.0 01:18:47 10° NNW 01:22:53 49° W 01:22:53 49° W
Helios 1A Rocket 3.3 01:21:04 10° NNE 01:24:46 57° ENE 01:24:46 57° ENE
Cosmos 1315 Rocket 3.3 01:26:21 54° NW 01:26:21 54° NW 01:29:53 10° N
UNK 4.5 01:09:16 10° SW 01:26:22 62° SSE 01:30:45 10° ENE
Cosmos 2285 Rocket 4.0 01:26:11 49° SSW 01:28:04 83° WNW 01:34:30 10° NNE
Cosmos 1605 Rocket 4.1 01:26:47 47° SSW 01:28:39 72° W 01:35:05 10° N
CZ-2C R/B 2.7 01:23:59 10° NNE 01:29:08 57° E 01:29:39 54° SE
Meteor 1-5 Rocket 4.0 01:28:37 64° SSW 01:29:28 83° W 01:34:50 10° N
Cosmos 1459 Rocket 4.3 01:28:22 43° SE 01:29:44 51° E 01:35:36 10° NNE
Meteor 1-12 Rocket 4.3 01:30:55 54° SE 01:31:48 62° E 01:37:22 10° NNE
Lacrosse 5 rocket 2.3 01:33:36 37° NE 01:33:36 37° NE 01:35:56 10° NE
H-2A R/B 2.9 01:27:51 10° N 01:32:21 61° WNW 01:32:43 59° W
CZ-2C R/B 3.2 01:35:54 51° ESE 01:36:48 60° ENE 01:41:39 10° N
Cosmos 1153 Rocket 4.5 01:40:27 52° SSW 01:42:09 80° W 01:48:32 10° N
ALOS 2 3.8 01:43:14 30° W 01:43:14 30° W 01:46:52 10° NNW
Cosmos 1602 Rocket 3.5 01:39:49 10° N 01:44:10 80° WNW 01:44:10 80° WNW
CZ-4B R/B 3.6 01:46:09 18° NW 01:46:09 18° NW 01:47:25 10° NW
Cosmos 2173 Rocket 4.1 01:45:24 50° SSE 01:46:57 68° E 01:53:16 10° NNE
Cosmos 1500 4.2 01:48:02 40° ENE 01:48:02 40° ENE 01:51:05 10° NNE
Cosmos 1626 Rocket 3.6 01:45:54 10° NNW 01:50:15 70° W 01:50:15 70° W
SL-24 DEB 4.4 01:49:25 10° N 01:54:11 64° E 01:54:31 62° ESE
Cosmos 1515 4.1 01:50:21 10° N 01:53:40 63° N 01:53:40 63° N
Cosmos 1455 Rocket 3.8 01:54:57 41° W 01:55:07 41° WNW 01:59:16 10° N
Cosmos 1346 Rocket 3.5 01:51:52 10° NNW 01:54:59 46° NW 01:54:59 46° NW
Cosmos 1943 Rocket 2.2 01:56:48 56° SE 01:57:27 60° ESE 02:02:58 10° NNE
Cosmos 2084 Rocket 4.3 01:58:04 10° NW 02:00:36 37° WNW 02:00:36 37° WNW
ISS -1.3 02:02:17 23° NW 02:03:24 29° N 02:06:20 10° ENE
Genesis I 4.3 02:04:11 37° WNW 02:04:42 39° NW 02:08:31 10° NNE
Cosmos 2263 4.3 02:09:16 49° WSW 02:10:42 67° WNW 02:16:21 10° NNE
SeaSat 1 2.6 02:10:09 49° SE 02:11:25 72° ENE 02:16:21 10° NNW
Cosmos 1975 3.3 02:13:58 52° WNW 02:13:58 52° WNW 02:17:41 10° N
Cosmos 1818 3.5 02:21:28 61° SSW 02:22:29 88° ESE 02:28:01 10° NE
Cosmos 968 Rocket 3.3 02:17:33 10° NNW 02:22:49 78° WSW 02:23:33 65° S
Meteor 1-21 4.3 02:18:14 10° N 02:23:50 69° ENE 02:25:34 44° SE
Gblst 52 Del rocket 4.5 02:21:18 31° WSW 02:24:52 88° NNW 02:31:01 10° ENE
GP-B 4.0 02:22:22 10° NNW 02:26:27 36° W 02:26:36 36° W
Cosmos 2228 4.5 02:26:11 26° ESE 02:26:53 27° E 02:30:32 10° NNE
Cosmos 1833 4.3 02:24:05 10° NW 02:29:32 53° WSW 02:30:07 51° SW
Cosmos 1606 Rocket 3.5 02:30:25 66° ESE 02:30:36 67° E 02:34:54 10° NNE
BREEZE-M DEB (TANK) 3.8 02:30:55 10° WNW 02:35:04 66° SSW 02:51:34 10° SE
Lacrosse 5 2.6 02:32:52 27° W 02:35:20 50° NNW 02:40:19 10° NE
NOSS 3-3 (A) 4.5 02:35:09 39° SSE 02:36:44 47° ESE 02:43:06 10° NE
NOSS 3-3 (C) 4.5 02:35:15 39° SSE 02:36:49 46° ESE 02:43:11 10° NE
SL-08 R/B 4.5 02:36:58 47° SSW 02:39:01 82° W 02:45:28 10° N
Cosmos 1743 2.8 02:41:35 71° NW 02:41:35 71° NW 02:45:14 10° N
BREEZE-M DEB (TANK) 3.7 02:25:23 10° WNW 02:41:40 87° SSW 02:45:39 10° ESE
Cosmos 2058 Rocket 3.2 02:44:21 56° SE 02:44:54 62° E 02:49:18 10° NNE
Cosmos 1842 3.3 02:44:24 10° N 02:48:23 72° E 02:48:38 69° ESE
Cosmos 1953 Rocket 3.6 02:50:19 10° NNW 02:54:35 59° W 02:54:43 59° WSW
Cosmos 2369 Rocket 3.8 02:51:36 16° W 02:54:50 26° NW 02:59:32 10° N
ATLAS 2AS CENTAUR R/B 3.1 02:47:56 10° NW 02:55:46 54° WSW 02:58:45 36° S
Cosmos 1777 Rocket 3.9 02:50:36 10° NNW 02:55:47 68° WSW 02:56:50 53° SSW
Cosmos 1340 2.6 02:52:45 10° N 02:56:35 82° E 02:56:38 82° E
SL-8 R/B 4.0 02:52:53 10° WNW 02:56:39 48° WSW 02:56:39 48° WSW
Cosmos 2219 3.2 02:52:55 10° NNW 02:58:30 61° WSW 02:59:47 48° SSW
Meteor 2-9 Rocket 4.4 02:57:05 40° SSE 02:59:13 69° E 03:05:01 10° NNE
JB-3 4.2 02:56:55 10° NNE 03:01:00 85° E 03:01:26 71° S
Cosmos 2227 Rocket 3.1 03:00:01 10° NNW 03:05:32 48° ENE 03:11:00 10° SE
Cosmos 44 Rocket 3.6 03:00:39 10° NW 03:05:34 48° WSW 03:05:47 48° SW
Cosmos 1726 Rocket 3.6 03:07:25 53° WSW 03:07:56 57° WNW 03:12:12 10° N
CZ-2C R/B 4.3 03:05:05 10° NNW 03:09:02 22° WNW 03:11:10 17° W
Cosmos 2233 Rocket 3.9 03:08:19 39° S 03:10:47 89° ESE 03:16:58 10° N
AQUA 4.4 03:06:26 10° NNE 03:11:04 48° E 03:12:44 33° SSE
Lacrosse 5 rocket 3.3 03:09:18 12° WNW 03:11:52 22° NNW 03:14:47 10° NNE
Abrixas 3.2 03:12:41 52° N 03:12:41 52° N 03:15:37 10° ENE
Cosmos 1666 2.6 03:15:24 65° WSW 03:15:37 67° W 03:19:24 10° N
Cosmos 972 Rocket 4.0 03:12:50 10° NNW 03:17:45 74° ENE 03:20:44 25° SSE
IRS-P3 4.1 03:12:40 10° NNE 03:18:03 81° ESE 03:20:06 39° S
Cosmos 1758 Rocket 4.2 03:14:39 10° NNW 03:18:52 40° W 03:19:14 39° WSW
Cosmos 2278 4.5 03:20:13 27° SSE 03:22:46 42° ESE 03:28:04 10° NE
Cosmos 405 Rocket 4.0 03:19:25 10° N 03:23:17 39° ENE 03:25:47 19° SE
Cosmos 2297 Rocket 3.0 03:21:55 10° NNW 03:27:27 51° ENE 03:32:56 10° SE
Uosat 12 SS-18 rocket 4.2 03:22:57 10° NW 03:27:33 80° SW 03:32:10 14° SSE
BREEZE-M R/B 4.1 03:23:22 10° WNW 03:30:42 71° SSW 03:36:43 10° SE
Landsat 4 4.0 03:34:12 46° WSW 03:34:22 46° W 03:38:05 10° NNW
GEOS 3 Rocket 3.9 03:29:38 10° SE 03:34:49 69° NE 03:39:58 10° NW
Cosmos 2150 Rocket 4.4 03:31:41 10° NNW 03:36:55 63° ENE 03:42:03 10° SSE
SL-08 R/B 3.3 03:36:30 39° SSW 03:38:04 62° WSW 03:42:42 10° NNW
Cosmos 1656 Rocket 4.2 03:35:32 29° WSW 03:38:09 48° WNW 03:43:36 10° NNE
ISS -1.9 03:37:16 10° NW 03:40:22 39° NNE 03:43:27 10° E
Cosmos 1943 Rocket 3.7 03:38:19 15° W 03:41:38 26° NW 03:46:17 10° N
NPP 3.6 03:36:13 10° NNE 03:41:38 77° WNW 03:44:08 33° SSW
IRAS Rocket 4.2 03:37:07 10° NNE 03:42:46 86° ESE 03:45:44 30° SSW
USA 161 2.0 03:46:59 38° SE 03:47:48 56° ENE 03:50:38 10° N
ATLAS CENTAUR R/B 3.3 03:45:31 18° SSE 03:48:09 28° ESE 03:52:23 10° ENE
Resurs 1-4 Rocket 3.3 03:44:15 10° NNE 03:49:09 37° E 03:53:23 13° SSE
SeaSat 1 4.1 03:49:56 17° W 03:49:56 17° W 03:52:40 10° WNW
Cosmos 1570 Rocket 4.5 03:47:16 30° SW 03:49:40 52° WNW 03:54:54 10° NNE
BREEZE-M DEB (TANK) 2.4 03:46:47 10° WNW 03:51:33 43° WSW 03:51:33 43° WSW
Cosmos 1898 Rocket 3.5 03:48:10 10° NNW 03:53:34 87° ENE 03:58:54 10° SSE
Cosmos 44 3.8 03:48:55 10° NW 03:53:47 41° WSW 03:55:22 31° SSW
NOSS 2-1 (D) 4.4 03:52:31 27° SSE 03:54:03 37° ESE 03:58:09 10° NE
Okean O Rocket 4.2 03:52:20 10° ENE 03:54:44 14° E 03:57:07 10° ESE
NOSS 2-1 (C) 4.4 03:53:49 26° SSE 03:55:24 37° ESE 03:59:30 10° NE
SL-24 R/B 4.4 03:54:24 13° SSE 03:58:58 78° ENE 04:03:32 10° N
CBERS 1 LM4 rocket 4.3 03:54:27 10° NNE 03:59:13 82° WNW 04:01:45 28° SSW
ERS-2 2.1 03:55:46 10° NNE 03:59:31 81° WNW 04:00:53 37° SSW
SL-16 R/B 2.7 03:53:37 10° SSE 03:59:47 76° ENE 04:05:58 10° NNW
ADEOS 3.5 03:56:01 10° NNE 04:01:16 87° WNW 04:04:22 25° SSW
Cosmos 972 4.3 03:58:11 10° NNW 04:03:06 85° WSW 04:07:51 11° SSE
Cosmos 1707 2.7 03:59:35 10° N 04:03:33 86° WSW 04:05:47 25° S
Cosmos 2034 Rocket 4.0 03:59:27 19° S 04:04:03 81° E 04:10:17 10° N
Cosmos 2228 4.2 04:03:04 24° WSW 04:04:24 28° WNW 04:08:09 10° NNW
Cosmos 220 Rocket 3.9 04:00:49 10° NNW 04:05:11 73° WSW 04:08:19 18° S
GENESIS II 4.5 04:03:32 32° WSW 04:05:16 66° NW 04:09:25 10° NNE
Geosat 4.2 04:03:15 10° NNE 04:08:13 61° WNW 04:11:07 25° SW
Cosmos 1937 Rocket 3.5 04:04:26 10° NNW 04:09:38 87° ENE 04:14:50 10° SSE
NOSS 2-1 (E) 4.0 04:08:25 26° S 04:10:24 49° ESE 04:14:50 10° NE
ARIANE 5 R/B 2.5 04:11:43 10° NNE 04:16:51 83° ESE 04:20:42 18° SSW
Nadezhda 4 Rocket 4.0 04:11:13 10° N 04:17:26 82° E 04:23:39 10° S
NOSS 3-4 (A) 3.8 04:11:42 10° NW 04:18:40 89° SW 04:26:03 10° SE
NOSS 3-4 (C) 3.8 04:11:47 10° NW 04:18:48 89° SW 04:26:13 10° SE
Lacrosse 5 3.9 04:15:06 10° WNW 04:19:17 25° N 04:23:28 10° NE
UNK 3.7 04:15:00 11° SSE 04:19:34 86° WSW 04:24:17 10° NNW
Cosmos 1763 Rocket 4.4 04:15:27 12° S 04:19:57 44° ESE 04:24:52 10° NNE
Cosmos 1408 Rocket 4.0 04:19:28 10° N 04:23:49 63° E 04:28:10 10° SSE
Cosmos 1766 Rocket 4.1 04:20:10 10° N 04:24:31 59° ENE 04:28:53 10° SSE
Cosmos 1812 Rocket 4.4 04:24:45 23° SW 04:26:58 37° WNW 04:31:09 10° N
Spot 4 Rocket 4.2 04:22:53 10° N 04:27:59 58° WNW 04:31:32 19° SW
Cosmos 1656 3.9 04:24:08 17° SSW 04:28:36 69° ESE 04:34:15 10° NNE
Meteor 2-5 Rocket 4.2 04:25:31 10° NNW 04:31:03 45° W 04:35:35 15° SSW
Cosmos-2242 4.3 04:27:16 10° SSE 04:31:17 38° E 04:35:16 10° NNE
Cosmos 2082 4.2 04:31:40 10° NW 04:36:49 38° WSW 04:41:56 10° S
SME Rocket 4.4 04:33:13 11° S 04:38:18 55° W 04:46:28 10° NNW
IRS-1D 3.5 04:34:07 10° N 04:39:03 69° WNW 04:43:05 15° SSW
CZ-2D R/B 2.2 04:34:15 10° NNE 04:39:46 84° WNW 04:44:44 13° SSW
CZ-2C R/B 4.5 04:36:09 10° SSE 04:40:44 57° ENE 04:45:18 10° N
Cosmos 1697 Rocket 3.0 04:36:48 13° SSW 04:41:53 66° ESE 04:47:32 10° NNE
In-Cosmos 22 4.4 04:37:20 10° N 04:42:38 67° ENE 04:47:53 10° SSE
Abrixas 2.8 04:45:45 10° WNW 04:48:50 71° NNE 04:51:53 10° E
Cosmos 1980 Rocket 3.1 04:43:42 10° S 04:49:02 46° ESE 04:54:27 10° NE
Cosmos 2227 Rocket 3.1 04:44:32 10° NW 04:49:20 29° WSW 04:54:06 10° SSW
Cosmos 1814 Rocket 4.2 04:46:33 16° SW 04:50:51 61° WNW 04:56:11 10° NNE
Okean 3 Rocket 4.5 04:47:54 10° NNW 04:51:46 30° W 04:54:48 14° SW
Lacrosse 5 rocket 3.9 04:50:01 10° NW 04:52:10 15° N 04:54:21 10° NE
Cosmos 1634 Rocket 4.2 04:46:57 10° S 04:53:09 75° E 04:59:27 10° NNE
Cosmos 405 Rocket 4.5 04:56:17 10° NW 04:59:03 18° W 05:01:00 13° WSW
Cosmos 2322 Rocket 4.3 04:54:55 10° SSE 04:59:12 23° ESE 05:03:30 10° NE
IRS-1C Rocket 4.4 04:55:00 10° NNE 05:00:16 70° ESE 05:05:30 10° S
Cosmos 1766 3.6 04:57:00 13° SSW 05:00:24 51° WNW 05:04:17 10° N
Milstar 3 Cent rocket 4.1 04:57:08 11° SSW 05:00:50 18° SSE 05:06:15 10° SE
MOZ.5/SAFIR/RUBIN 5/SL-8 3.9 04:58:04 10° SSE 05:02:47 81° ENE 05:07:30 10° N
ADEOS II 4.3 04:59:27 10° NE 05:03:38 23° E 05:07:47 10° SE
Cosmos 1092 Rocket 4.1 04:58:20 10° NNW 05:04:30 61° W 05:10:42 10° S
BREEZE-M DEB (TANK) 2.0 05:02:03 10° W 05:04:45 88° S 05:09:25 10° E
UNKNOWN OBJECT B 3.1 05:05:16 10° N 05:09:07 51° WNW 05:12:52 10° SSW
Cosmos 1758 3.3 05:06:33 10° S 05:10:36 85° WNW 05:14:38 10° N
Cosmos 2297 Rocket 3.1 05:06:31 10° NW 05:11:10 27° WSW 05:15:49 10° SSW
CZ-2D R/B 3.6 05:09:19 10° N 05:13:35 65° WNW 05:17:56 10° SSW
ISS -3.2 05:13:42 10° WNW 05:16:53 51° SSW 05:20:03 10° SE
Cosmos 1953 2.4 05:13:19 10° SSW 05:17:20 69° W 05:21:25 10° N
Cosmos 1378 4.5 05:21:53 10° NW 05:24:56 23° W 05:27:57 10° SW
ATLAS CENTAUR R/B 2.3 05:22:09 10° SW 05:27:05 51° NW 05:31:56 10° NNE
Resurs 1-4 Rocket 3.0 05:24:15 10° N 05:28:55 33° WNW 05:33:33 10° SW
SL-16 R/B 3.6 05:25:01 10° S 05:30:11 38° ESE 05:35:22 10° NE
Okean O Rocket 1.7 05:27:11 10° N 05:31:31 62° WNW 05:35:52 10° SSW
PAYLOAD B 4.3 05:27:13 10° NNE 05:32:51 82° WNW 05:38:27 10° SSW
